Location: Buckland
(65.9785°N, 161.1281°W)
Time: 04:10:56
(UTC+00:00)

Transit 4A - Pass Details

Date: 27 November 2020
Orbit: 864 x 980 km, 66.8° (Epoch: 26 January)

Event Time Altitude Azimuth Distance (km) Brightness Sun altitude
Rises 19:41:40 0° 202° (SSW) 3,654 11.4 -3.1°
Reaches altitude 10° 19:44:21 10° 196° (SSW) 2,720 10.9 -2.9°
Maximum altitude 19:50:14 41° 129° (SE) 1,401 9.7 -2.5°
Drops below altitude 10° 19:56:09 10° 62° (ENE) 2,742 10.5 -2.2°
Sets 19:58:51 0° 56° (NE) 3,687 11.0 -2.0°
